Fort Stockton, TX

6:59 PM CST on December 08, 2016 (GMT -0600)
Fort Stockton-Pecos County

Weather History for KFST - January, 2014

Change the Weather History Date:

Wednesday, January 1, 2014

  Actual Average Record
Temperature  
Mean Temperature 55 °F -  
Max Temperature 71 °F 59 °F 78 °F (2000)
Min Temperature 39 °F 35 °F 21 °F (2015)
Degree Days  
Heating Degree Days 10    
Growing Degree Days 5 (Base 50)    
Moisture  
Dew Point 27 °F    
Average Humidity 41    
Maximum Humidity 73    
Minimum Humidity 15    
Precipitation  
Precipitation 0.00 in - - ()
Sea Level Pressure  
Sea Level Pressure 30.01 in    
Wind  
Wind Speed 13 mph (West)    
Max Wind Speed 16 mph    
Max Gust Speed 22 mph    
Visibility 10 miles    
Events      
Averages and records for this station are not official NWS values.
T = Trace of Precipitation, MM = Missing Value Source: NWS Daily Summary

Daily Weather History Graph

Daily Weather History Graph

Search for Another Location

Airport or City:

Trip Planner

Search our weather history database for the weather conditions in past years. The results will help you decide how hot, cold, wet, or windy it might be!

Date:

Astronomy

Jan. 01, 2014 Rise Set
Actual Time 7:49 AM CST 6:01 PM CST
Civil Twilight 7:23 AM CST 6:27 PM CST
Nautical Twilight 6:53 AM CST 6:57 PM CST
Astronomical Twilight 6:23 AM CST 7:27 PM CST
Moon 7:46 AM CST (1/1) 6:43 PM CST (1/1)
Length of Visible Light 11h 04m
Length of Day
10h 11m
New Moon, 0% of the Moon is Illuminated
Jan 1
New Moon
Jan 7
First Quarter
Jan 15
Full
Jan 23
Last Quarter
Jan 30
New

Hourly Weather History & Observations

Time (CST) Temp. Windchill Dew Point Humidity Pressure Visibility Wind Dir Wind Speed Gust Speed Precip Events Conditions
12:53 AM 41.0 °F 33.5 °F 30.0 °F 65% 30.05 in 10.0 mi SW 13.8 mph - N/A   Clear
1:53 AM 41.0 °F 33.5 °F 30.0 °F 65% 30.02 in 10.0 mi SW 13.8 mph - N/A   Clear
2:53 AM 41.0 °F 33.9 °F 28.9 °F 62% 30.01 in 10.0 mi SW 12.7 mph - N/A   Clear
3:53 AM 41.0 °F 33.5 °F 30.0 °F 65% 29.99 in 10.0 mi SSW 13.8 mph - N/A   Clear
4:53 AM 39.0 °F 31.0 °F 30.9 °F 73% 29.98 in 10.0 mi SW 13.8 mph - N/A   Clear
5:53 AM 43.0 °F 35.7 °F 30.9 °F 62% 29.98 in 10.0 mi SW 15.0 mph - N/A   Clear
6:53 AM 43.0 °F 35.7 °F 30.0 °F 60% 29.99 in 10.0 mi SW 15.0 mph - N/A   Clear
7:53 AM 43.0 °F 36.0 °F 30.0 °F 60% 30.01 in 10.0 mi SSW 13.8 mph - N/A   Clear
8:53 AM 50.0 °F - 32.0 °F 50% 30.01 in 10.0 mi SW 16.1 mph - N/A   Clear
9:53 AM 57.9 °F - 32.0 °F 37% 30.00 in 10.0 mi SW 16.1 mph - N/A   Clear
10:53 AM 63.0 °F - 30.0 °F 29% 30.00 in 10.0 mi WSW 13.8 mph - N/A   Clear
11:53 AM 66.0 °F - 28.0 °F 24% 29.98 in 10.0 mi WSW 12.7 mph - N/A   Clear
12:53 PM 68.0 °F - 24.1 °F 19% 29.96 in 10.0 mi West 6.9 mph - N/A   Clear
1:53 PM 70.0 °F - 23.0 °F 17% 29.93 in 10.0 mi WNW 11.5 mph 16.1 mph N/A   Clear
2:53 PM 70.0 °F - 23.0 °F 17% 29.91 in 10.0 mi West 13.8 mph - N/A   Clear
3:53 PM 71.1 °F - 21.0 °F 15% 29.91 in 10.0 mi NW 13.8 mph 19.6 mph N/A   Clear
4:53 PM 69.1 °F - 21.0 °F 16% 29.92 in 10.0 mi NNW 11.5 mph - N/A   Clear
5:53 PM 62.1 °F - 24.1 °F 23% 29.95 in 10.0 mi NW 9.2 mph - N/A   Clear
6:53 PM 57.0 °F - 24.1 °F 28% 29.99 in 10.0 mi NW 8.1 mph - N/A   Clear
7:53 PM 54.0 °F - 24.1 °F 31% 30.03 in 10.0 mi NW 9.2 mph - N/A   Clear
8:53 PM 54.0 °F - 24.1 °F 31% 30.04 in 10.0 mi WNW 10.4 mph - N/A   Clear
9:36 PM 50.0 °F - 26.1 °F 39% 30.16 in 10.0 mi NNE 10.4 mph - N/A   Clear
9:53 PM 52.0 °F - 27.0 °F 38% 30.10 in 10.0 mi NE 12.7 mph - N/A   Clear
10:53 PM 46.0 °F 41.4 °F 28.0 °F 50% 30.15 in 10.0 mi ENE 9.2 mph - N/A   Clear
11:53 PM 46.0 °F 39.6 °F 27.0 °F 47% 30.19 in 10.0 mi ENE 15.0 mph 21.9 mph N/A   Clear